TimeEDT,TemperatureF,Dew PointF,Humidity,Sea Level PressureIn,VisibilityMPH,Wind Direction,Wind SpeedMPH,Gust SpeedMPH,PrecipitationIn,Events,Conditions,WindDirDegrees,DateUTC
12:53 AM,69.1,57.9,68,29.88,10.0,SSE,5.8,-,N/A,,Mostly Cloudy,150,2013-04-19 04:53:00
1:53 AM,68.0,60.1,76,29.86,10.0,SE,8.1,-,N/A,,Scattered Clouds,140,2013-04-19 05:53:00
2:53 AM,68.0,61.0,78,29.83,10.0,SSE,9.2,-,N/A,,Mostly Cloudy,160,2013-04-19 06:53:00
3:53 AM,66.9,60.1,79,29.81,10.0,SSE,10.4,-,N/A,,Clear,160,2013-04-19 07:53:00
4:32 AM,66.2,59.0,78,29.84,10.0,South,9.2,16.1,N/A,,Mostly Cloudy,170,2013-04-19 08:32:00
4:53 AM,66.9,59.0,76,29.80,10.0,South,9.2,18.4,N/A,,Overcast,170,2013-04-19 08:53:00
5:53 AM,66.0,60.1,81,29.80,10.0,South,8.1,-,N/A,,Overcast,180,2013-04-19 09:53:00
6:53 AM,66.0,61.0,84,29.82,10.0,South,11.5,-,N/A,,Overcast,180,2013-04-19 10:53:00
7:53 AM,66.9,62.1,84,29.83,10.0,South,8.1,-,N/A,,Overcast,180,2013-04-19 11:53:00
8:53 AM,66.9,63.0,87,29.79,8.0,SSE,11.5,-,0.00,Rain,Light Rain,160,2013-04-19 12:53:00
8:55 AM,66.2,62.6,88,29.82,9.0,SSE,8.1,-,0.00,Rain,Light Rain,160,2013-04-19 12:55:00
9:53 AM,69.1,64.0,84,29.78,9.0,South,11.5,20.7,0.00,,Overcast,180,2013-04-19 13:53:00
10:11 AM,69.8,64.4,83,29.80,9.0,South,11.5,21.9,N/A,,Overcast,170,2013-04-19 14:11:00
10:51 AM,69.8,66.2,88,29.81,7.0,South,11.5,20.7,0.00,Rain,Light Rain,180,2013-04-19 14:51:00
10:53 AM,69.1,66.0,90,29.77,7.0,South,12.7,20.7,0.00,Rain,Light Rain,170,2013-04-19 14:53:00
11:00 AM,68.0,64.4,88,29.85,0.5,WNW,24.2,32.2,0.02,Fog-Rain,Light Rain,300,2013-04-19 15:00:00
11:06 AM,60.8,57.2,88,29.85,5.0,NW,18.4,32.2,0.13,Rain,Heavy Rain,310,2013-04-19 15:06:00
11:10 AM,59.0,57.2,94,29.86,5.0,NW,16.1,29.9,0.13,Rain,Light Rain,310,2013-04-19 15:10:00
11:53 AM,57.0,55.0,93,29.87,4.0,WNW,12.7,18.4,0.26,Rain,Rain,290,2013-04-19 15:53:00
12:53 PM,55.0,53.1,93,29.91,6.0,West,13.8,20.7,0.13,Rain,Light Rain,270,2013-04-19 16:53:00
1:53 PM,53.1,51.1,93,29.92,5.0,WNW,10.4,18.4,0.04,Rain,Light Rain,300,2013-04-19 17:53:00
2:48 PM,51.8,48.2,88,29.90,5.0,West,11.5,18.4,0.01,,Mostly Cloudy,280,2013-04-19 18:48:00
2:53 PM,52.0,48.9,89,29.90,5.0,NW,10.4,-,0.01,,Mostly Cloudy,310,2013-04-19 18:53:00
3:27 PM,51.8,48.2,88,29.92,10.0,WNW,11.5,-,N/A,,Overcast,290,2013-04-19 19:27:00
3:53 PM,51.1,46.9,86,29.91,10.0,WNW,13.8,23.0,N/A,,Mostly Cloudy,290,2013-04-19 19:53:00
4:53 PM,48.9,44.1,83,29.94,8.0,WNW,9.2,-,0.00,Rain,Light Rain,300,2013-04-19 20:53:00
5:53 PM,48.9,45.0,86,29.94,10.0,West,6.9,-,0.01,,Mostly Cloudy,260,2013-04-19 21:53:00
6:53 PM,48.9,45.0,86,29.93,10.0,WSW,6.9,-,N/A,,Partly Cloudy,240,2013-04-19 22:53:00
7:53 PM,48.9,44.1,83,29.93,10.0,West,6.9,-,N/A,,Clear,280,2013-04-19 23:53:00
8:53 PM,48.0,42.1,80,29.98,10.0,West,9.2,-,N/A,,Clear,270,2013-04-20 00:53:00
9:53 PM,48.0,39.9,74,30.01,10.0,West,12.7,18.4,N/A,,Mostly Cloudy,280,2013-04-20 01:53:00
10:53 PM,46.9,37.9,71,30.04,10.0,WNW,9.2,18.4,N/A,,Clear,300,2013-04-20 02:53:00
11:53 PM,46.0,37.9,73,30.05,10.0,WNW,8.1,-,N/A,,Clear,300,2013-04-20 03:53:00